Regional Weather Roundup
Issued by NWS

Home | Current Version | Previous Version | Text Only | Print | Product List | Glossary On
Versions: 1 2 3 4 5 6 7 8 9 10 11 12 13 14 15 16 17 18 19 20 21 22 23 24 25 26 27 28 29 30 31 32 33 34 35 36 37 38 39 40 41 42 43 44 45 46 47 48 49 50
533
ASUS44 KJAN 271810
RWRMS

MISSISSIPPI HOURLY WEATHER ROUNDUP
NATIONAL WEATHER SERVICE JACKSON MS
1200 PM CST TUE JAN 27 2015

NOTE: "FAIR: INDICATES FEW OR NO CLOUDS BELOW 12,000 FEET WITH NO
SIGNIFICANT WEATHER AND/OR OBSTRUCTIONS TO VISIBILITY.

MSZ001>002-007>008-010>013-018>021-025>028-034>036-271900-
NORTHWEST MISSISSIPPI

CITY           SKY/WX    TMP DP  RH WIND       PRES   REMARKS
CLARKSDALE     FAIR      55  39  54 N13G18    30.14F
CLEVELAND      FAIR      57  41  55 N12       30.13F
GREENWOOD      SUNNY     58  37  45 N8G17     30.12F
6HR MIN TEMP:  33; 6HR MAX TEMP:  58;

GREENVILLE     SUNNY     60  37  42 N14       30.13F
6HR MIN TEMP:  39; 6HR MAX TEMP:  60;

GRENADA        FAIR      57  36  44 N7        30.11F
OLIVE BRANCH   MOSUNNY   52  36  54 N14       30.14S
OXFORD         FAIR      54  34  47 N15       30.13F
TUNICA         CLEAR     54  39  58 N14G20    30.15F
$$

MSZ003>006-009-014>017-022>024-029>033-037>039-271900-
NORTHEAST MISSISSIPPI

CITY           SKY/WX    TMP DP  RH WIND       PRES   REMARKS
COLUMBUS AFB   SUNNY     57  36  46 NW15      30.08F
6HR MIN TEMP:  35; 6HR MAX TEMP:  57;

CORINTH        FAIR      52  34  50 N12G17    30.10S
GOLDN TRIANGLE SUNNY     57  39  51 NW8       30.08F
STARKVILLE     FAIR      55  37  50 N8G16     30.09F
TUPELO         SUNNY     55  34  45 NE15G23   30.10F
6HR MIN TEMP:  41; 6HR MAX TEMP:  55;

$$

MSZ040-058-271900-
CENTRAL MISSISSIPPI

CITY           SKY/WX    TMP DP  RH WIND       PRES   REMARKS
JACKSON INTL   SUNNY     64  33  31 N13G22    30.11F
6HR MIN TEMP:  35; 6HR MAX TEMP:  64;

JACKSON HAWKNS SUNNY     63  32  31 N10G17    30.11F
6HR MIN TEMP:  43; 6HR MAX TEMP:  64;

MERIDIAN KEY   SUNNY     65  35  33 NW7       30.07F
6HR MIN TEMP:  31; 6HR MAX TEMP:  65;

MERIDIAN NAS   SUNNY     63  33  32 N12       30.07F
6HR MIN TEMP:  37; 6HR MAX TEMP:  64;

RAYMOND        FAIR      64  59  82 NW10      30.12F
VICKSBURG      SUNNY     64  37  36 N12       30.14F
6HR MIN TEMP:  33; 6HR MAX TEMP:  64;

$$

MSZ059>079-271900-
SOUTH MISSISSIPPI

CITY           SKY/WX    TMP DP  RH WIND       PRES   REMARKS
BROOKHAVEN     FAIR      64  37  36 N8        30.13F
HATTIESBURG    SUNNY     66  37  34 N9        30.10F
6HR MIN TEMP:  39; 6HR MAX TEMP:  66;

MCCOMB         SUNNY     66  37  34 N8        30.12F
6HR MIN TEMP:  41; 6HR MAX TEMP:  68;

NATCHEZ        SUNNY     66  37  34 N8        30.14F
6HR MIN TEMP:  37; 6HR MAX TEMP:  66;

PINE BELT      SUNNY     66  36  32 N12       30.11F
6HR MIN TEMP:  43; 6HR MAX TEMP:  66;

$$

MSZ080>082-271900-
COASTAL MISSISSIPPI

CITY           SKY/WX    TMP DP  RH WIND       PRES   REMARKS
BAY ST LOUIS   SUNNY     66  34  30 NW8       30.10F
BILOXI         SUNNY     67  39  35 NW7       30.08F
6HR MIN TEMP:  45; 6HR MAX TEMP:  67;

PASCAGOULA     SUNNY     66  38  35 NW12      30.08F
6HR MIN TEMP:  43; 6HR MAX TEMP:  66;

GULFPORT       SUNNY     67  38  34 NW15      30.08F
6HR MIN TEMP:  43; 6HR MAX TEMP:  67;

$$



USA.gov is the U.S. government's official web portal to all federal, state and local government web resources and services.